Theta_e
341 339 336 335 334 333 336 339 339 339 338 338 338 337 337 336 334 335 336 335 335 336 335 336 336 336 337 336 335 334 333 333 333 333 332 329 326 323 323 325 326 327 327 328 329 329 329 329 329 329 329 329 329 329 329 329 329 328 328 327 327 327 327 328 328 328 328 329 329 328 328 328 328 328 328 329 331 331 330 330 330 330 329 325 317
341 340 337 334 334 333 334 337 338 338 338 338 338 337 337 336 334 335 336 335 335 335 335 336 335 335 335 334 333 333 331 331 330 331 332 329 327 324 323 325 327 327 327 328 328 328 328 328 328 327 327 327 327 327 327 327 326 326 326 325 325 325 325 325 326 327 327 328 328 327 326 326 327 328 328 328 329 330 330 330 330 330 330 329 323
340 339 337 334 334 334 334 337 336 335 337 338 338 338 337 337 337 336 336 336 336 335 335 334 334 334 333 332 332 331 329 327 326 327 329 329 327 325 324 324 324 323 325 326 326 326 325 325 325 325 324 325 324 324 323 322 322 322 321 321 321 322 322 323 323 323 324 325 325 324 324 323 325 326 326 326 326 327 329 330 330 330 330 330 328
336 336 336 334 334 334 334 335 335 335 337 338 338 337 338 336 336 335 333 335 335 334 334 333 333 333 331 330 329 329 328 326 325 325 327 327 326 326 325 324 323 321 322 323 322 321 320 319 318 318 317 317 316 316 315 314 313 314 313 312 314 316 317 318 318 318 318 319 321 321 321 320 321 323 323 323 324 324 326 328 330 330 330 330 330
335 335 336 335 334 334 333 333 335 335 334 334 336 337 337 335 334 333 332 333 334 333 333 332 332 331 329 328 327 327 327 326 325 325 326 326 326 325 325 324 324 322 319 317 314 312 309 308 307 307 307 306 306 306 306 305 304 304 305 304 305 306 307 308 309 310 310 312 314 317 317 316 316 319 320 321 321 322 322 324 327 329 330 330 330
336 336 336 336 334 333 334 334 333 333 333 332 334 335 335 334 333 334 332 332 333 333 332 331 330 329 327 326 325 324 324 324 324 324 325 325 324 324 324 323 322 320 316 309 304 303 302 301 301 301 301 301 301 301 301 301 301 300 300 300 300 300 300 301 301 302 303 304 305 308 310 310 311 313 317 319 320 320 321 322 325 328 329 330 330
336 336 336 337 336 334 335 335 332 334 334 331 332 333 333 333 332 333 333 332 332 332 331 330 329 327 325 324 323 322 322 322 323 322 322 322 322 322 320 317 312 310 309 305 301 301 300 300 300 301 301 301 301 300 300 300 300 300 300 300 300 300 299 299 299 299 299 299 299 300 301 302 304 306 309 314 317 319 320 321 323 326 329 329 330
335 335 336 338 337 334 333 333 331 332 332 330 332 333 332 332 328 328 331 332 331 330 330 329 327 326 324 323 322 321 321 321 322 321 321 321 319 315 310 306 303 301 302 301 300 300 300 300 300 300 300 300 300 300 300 300 300 300 300 300 299 299 299 299 299 299 299 299 299 299 299 299 299 300 302 306 311 315 318 319 320 322 326 328 329
336 335 335 337 336 334 332 331 331 332 331 331 332 331 331 332 327 324 327 331 331 330 329 327 325 324 323 322 320 321 321 320 320 320 319 316 310 305 302 301 301 300 300 300 300 300 300 300 300 300 300 300 300 300 300 300 299 299 299 299 299 299 299 299 298 299 298 298 299 298 299 298 298 298 298 299 302 307 312 315 318 320 323 325 326
336 334 334 334 334 333 332 331 331 332 331 331 332 331 331 331 328 322 322 329 330 329 328 325 322 321 320 319 320 320 320 319 319 317 312 306 302 301 300 300 300 300 300 300 299 299 299 300 300 300 300 299 299 299 299 299 299 299 299 299 299 298 298 298 298 298 298 298 298 298 298 298 298 298 298 298 298 300 303 307 313 318 321 322 323
336 335 334 333 333 333 332 331 331 331 331 332 331 330 330 327 324 319 317 326 330 329 325 321 319 318 318 318 319 319 319 319 316 310 304 300 300 301 301 300 300 300 300 300 299 299 299 299 299 299 299 299 299 299 299 299 299 298 298 298 298 298 298 298 298 298 298 298 298 298 298 298 298 298 298 298 298 298 299 300 304 310 316 319 321
335 335 333 332 333 333 332 332 332 332 332 332 330 329 328 321 318 315 313 320 328 326 321 316 315 316 317 317 318 318 318 314 308 303 300 300 300 300 300 300 300 300 299 299 299 299 300 299 299 299 298 299 298 298 298 298 298 298 298 298 298 298 298 298 298 298 298 298 298 298 298 298 298 298 299 298 299 298 298 298 299 301 306 312 316
334 335 333 333 334 333 333 332 332 331 332 331 328 326 323 316 314 312 311 320 327 323 316 315 316 315 316 317 316 316 314 307 302 300 300 300 299 299 299 299 300 300 300 300 299 299 299 299 299 299 298 298 298 299 299 298 297 297 297 298 297 298 298 297 298 298 298 298 298 298 298 298 299 299 299 299 299 299 299 299 298 298 299 302 307
334 335 334 334 334 333 333 332 331 330 329 328 324 320 317 313 312 312 312 321 328 324 318 319 322 320 319 319 316 315 312 306 300 300 300 299 299 299 299 299 299 299 300 300 300 299 299 299 298 298 298 298 297 298 299 297 297 297 297 297 297 297 297 297 297 297 298 298 298 298 298 298 298 299 298 299 299 299 299 298 298 298 298 298 300
334 334 333 333 333 332 331 330 329 328 325 323 319 316 314 312 313 313 311 314 320 322 320 323 327 325 323 323 320 318 317 312 303 299 300 299 299 299 299 299 299 299 300 300 300 298 298 298 298 298 297 297 297 297 297 297 296 297 297 296 297 296 297 297 297 297 297 297 297 297 298 298 298 299 299 299 299 299 300 301 301 300 299 298 298
333 332 332 331 331 330 329 328 326 325 322 318 315 313 312 311 311 310 312 315 315 313 311 318 328 327 324 326 324 321 322 318 309 301 301 301 300 300 299 299 299 300 302 302 301 299 299 299 298 298 298 297 297 297 297 297 296 296 296 296 296 296 296 296 297 297 297 297 297 297 297 298 298 298 299 299 299 301 304 305 304 301 299 299 299
332 332 330 329 328 328 327 326 323 321 317 314 313 312 311 310 308 305 310 315 312 304 302 312 324 326 325 327 324 323 322 317 312 306 304 303 302 301 299 299 300 302 303 303 302 301 301 302 300 298 298 297 297 297 297 298 296 296 296 296 296 296 296 297 297 297 297 297 297 298 298 298 298 298 298 298 299 303 305 305 304 302 302 301 299
332 331 329 328 327 326 325 323 320 316 314 313 312 311 309 307 305 303 304 307 304 302 302 306 314 318 321 323 321 322 318 313 313 311 307 307 305 301 300 300 300 303 304 303 302 300 299 302 301 300 300 299 298 298 298 298 297 296 297 297 296 296 296 297 297 297 298 298 298 298 298 298 298 298 298 298 301 304 305 304 303 304 304 302 299
331 330 328 327 325 324 322 319 316 313 312 312 310 309 307 304 303 303 303 302 302 305 304 302 305 307 310 311 310 311 310 311 316 314 311 312 309 306 303 301 300 301 302 304 303 299 298 300 301 303 303 300 299 299 298 298 297 296 297 297 296 297 297 298 298 299 299 299 299 299 299 299 299 298 299 301 303 303 303 303 303 304 304 302 299
330 328 327 325 323 322 319 314 313 312 311 310 308 305 303 303 303 303 302 302 303 305 304 303 302 301 302 302 301 302 303 307 313 314 313 314 311 309 308 306 303 301 299 301 301 300 301 301 302 304 303 302 301 301 300 299 298 298 298 298 297 298 299 299 300 300 300 300 300 300 300 301 300 300 301 303 303 303 302 302 303 303 302 301 300
329 327 326 324 322 319 315 312 311 311 309 307 304 303 302 302 302 302 302 302 302 302 302 302 302 302 302 302 302 301 301 302 306 310 312 312 310 309 309 309 310 307 302 300 302 303 304 304 304 304 303 303 303 302 301 299 298 300 299 298 298 299 300 301 301 301 301 301 301 301 300 301 301 301 302 303 303 302 302 302 302 302 302 302 302
328 325 324 322 319 316 312 311 310 309 306 304 302 302 302 302 302 301 301 301 301 301 301 301 301 302 303 306 308 308 307 306 306 309 310 310 310 308 307 309 311 310 305 302 304 305 304 304 304 303 303 302 302 301 299 298 300 301 299 298 299 300 301 301 301 301 301 301 301 301 301 301 301 301 301 301 302 302 301 301 301 301 302 303 302
326 324 322 319 316 313 310 310 308 305 303 302 302 302 301 301 301 301 301 301 301 301 301 301 300 300 301 304 306 306 307 307 306 309 310 310 310 309 307 307 308 309 306 304 305 304 303 303 303 302 302 301 301 299 297 298 301 300 298 298 299 300 301 301 301 301 301 301 301 301 301 301 300 300 300 301 301 301 301 301 301 301 301 301 301
324 322 320 316 313 311 309 308 305 303 302 301 301 301 301 301 300 300 300 300 300 300 300 300 300 300 300 300 301 300 301 301 301 304 307 309 310 309 308 307 308 308 306 306 305 304 302 302 302 302 301 301 300 298 296 298 300 299 298 298 299 300 301 301 301 301 301 301 301 301 300 300 300 300 299 299 299 300 300 300 300 300 300 300 300
322 321 318 314 311 309 308 306 303 302 301 301 301 301 301 300 300 300 300 300 300 300 300 300 299 299 299 299 299 299 299 299 299 299 303 306 307 308 308 308 309 307 306 306 305 304 302 301 302 302 301 300 298 297 297 298 300 299 298 298 299 301 301 301 301 301 301 301 301 301 300 300 300 299 299 299 298 299 299 299 299 299 300 299 300
321 319 315 311 310 308 306 304 302 301 301 300 300 300 300 300 300 300 300 300 300 299 299 299 299 299 299 299 299 299 298 299 299 298 299 301 301 304 307 308 308 306 305 305 304 304 302 301 302 301 300 299 297 297 297 298 300 299 297 297 299 301 301 301 301 301 302 301 301 301 300 300 300 300 299 298 298 299 299 299 299 299 299 299 299
320 317 313 311 309 307 305 302 301 300 300 300 300 300 300 300 300 299 299 299 299 299 299 299 299 299 299 299 299 299 299 298 299 298 298 298 298 300 303 307 308 305 305 306 305 304 302 301 302 301 300 298 297 298 298 299 301 299 297 297 298 300 302 301 301 301 302 301 301 301 301 301 300 300 299 298 298 299 299 299 299 299 299 299 299
319 315 312 310 308 306 303 301 300 300 300 300 300 300 300 299 299 299 299 299 299 299 299 299 299 299 298 299 298 298 298 298 298 298 297 297 297 298 299 302 305 305 305 305 305 304 302 301 302 301 300 298 297 298 298 300 301 298 297 298 299 301 301 300 301 301 302 302 301 301 301 301 300 300 299 299 299 299 299 299 299 298 298 299 299
319 314 311 309 307 304 301 300 300 300 300 300 299 299 299 299 299 299 299 299 298 298 298 298 298 298 298 298 298 298 298 298 298 297 298 297 297 297 297 298 301 303 304 305 306 303 301 302 302 301 299 299 298 298 298 300 300 298 297 298 300 301 300 300 301 301 302 302 301 301 301 301 300 300 299 299 298 298 298 298 298 298 298 298 298
317 313 310 308 305 302 300 300 300 299 300 299 299 299 299 299 299 299 298 298 298 298 298 298 298 298 298 298 298 298 297 297 297 297 297 297 297 297 297 297 297 299 302 304 305 303 301 301 301 301 300 300 300 300 300 300 300 298 297 298 300 301 300 301 301 301 302 302 301 301 301 300 300 300 300 299 298 298 298 298 298 298 298 298 298
315 312 310 307 304 301 300 300 299 299 299 299 299 299 299 299 298 298 298 298 298 298 298 298 298 298 298 298 297 297 297 297 297 297 297 297 298 297 297 297 297 297 299 302 304 303 302 301 300 301 301 301 301 301 301 301 300 299 298 298 299 299 300 301 301 301 302 301 301 301 301 300 300 300 300 299 298 297 297 297 297 297 297 297 297
314 311 308 305 302 300 299 299 299 299 299 299 299 298 298 298 298 298 298 298 298 298 298 297 297 297 297 297 297 297 297 297 297 297 297 297 297 297 298 298 298 296 297 300 303 303 302 301 300 302 302 301 302 302 302 301 300 299 298 298 299 299 301 302 302 302 302 302 301 301 300 300 300 300 299 299 298 297 297 297 296 296 296 296 297
314 309 306 303 300 299 299 299 299 299 299 299 298 298 298 298 298 297 297 297 297 297 297 297 297 297 297 297 297 297 297 298 298 298 298 298 299 298 298 299 298 297 297 299 301 303 302 301 301 303 303 302 302 302 302 301 300 298 298 299 299 300 300 302 302 302 302 302 301 301 300 300 300 300 299 298 298 298 297 297 297 297 297 297 297
313 307 305 302 299 299 299 299 299 299 299 299 298 298 298 298 297 297 297 297 297 297 297 297 297 297 296 296 296 296 296 297 298 298 298 299 300 299 298 298 298 297 297 298 301 303 302 301 302 303 303 303 303 302 302 302 300 298 298 299 300 300 300 301 302 303 302 301 301 301 301 301 300 300 299 299 299 298 297 297 297 297 297 297 297
311 306 304 301 299 299 298 298 299 298 298 298 298 298 298 298 297 297 298 297 296 296 296 296 296 296 296 296 296 296 296 296 297 297 297 298 299 298 298 298 298 297 297 298 301 303 303 302 303 303 303 303 303 302 302 301 299 298 299 299 300 300 300 301 302 302 302 301 301 301 300 300 300 300 299 299 299 298 298 298 298 297 297 297 297
308 305 304 301 298 298 298 299 299 298 298 298 298 298 297 297 297 297 297 296 297 297 297 296 297 296 296 296 296 296 296 296 297 297 297 298 298 298 298 299 300 298 298 300 302 303 302 303 303 303 303 303 302 302 301 300 299 299 298 298 299 300 301 302 302 302 302 301 301 300 300 300 300 300 299 299 299 298 298 298 298 297 297 297 297
308 306 304 300 299 299 299 300 300 298 298 298 298 298 297 297 297 297 297 297 297 298 297 297 297 296 296 297 297 297 297 296 297 297 296 297 298 297 296 298 299 298 298 301 302 302 302 303 303 303 303 302 302 302 300 299 298 298 298 297 298 300 301 302 302 302 302 301 301 300 300 300 300 300 300 299 299 299 299 298 298 298 297 298 298
309 306 303 301 302 301 301 302 301 299 298 298 299 299 297 297 297 298 297 297 297 297 296 296 296 296 297 297 297 297 296 296 296 296 296 296 297 296 296 297 297 297 299 301 302 301 302 302 302 302 302 302 302 301 300 298 298 297 297 297 297 300 301 302 302 302 302 301 301 300 300 300 300 300 300 299 299 299 299 298 298 298 298 298 298
309 305 303 303 304 304 305 305 303 300 298 300 300 299 297 297 298 298 297 297 296 296 296 296 295 296 296 297 297 296 296 296 296 296 296 296 296 296 296 296 296 296 299 301 301 301 301 301 302 302 302 302 301 300 299 299 297 296 297 297 298 299 301 301 302 302 302 301 301 300 300 300 300 300 300 299 299 299 299 298 298 298 298 298 298
309 305 305 305 305 306 308 306 303 301 299 301 302 300 299 299 298 298 297 297 297 297 296 296 295 296 296 296 296 296 296 296 296 296 297 296 297 296 296 296 296 296 297 299 300 300 300 301 301 302 301 301 300 299 299 298 297 296 296 297 299 300 300 301 301 302 301 301 301 300 300 300 300 300 300 300 299 299 298 299 298 298 298 297 297
309 306 307 307 305 308 309 305 303 301 300 302 303 301 301 300 298 297 298 298 298 297 297 296 296 296 296 296 297 296 296 297 296 297 296 296 297 296 296 296 296 296 296 297 298 298 299 300 301 301 301 301 300 299 299 298 296 295 296 297 299 300 300 301 301 301 301 301 300 300 300 300 300 300 300 300 299 299 298 298 298 298 297 297 296
308 306 308 308 307 309 308 305 305 302 300 304 304 302 302 301 298 299 300 300 299 298 298 298 297 297 296 296 297 296 296 297 296 296 296 296 296 296 296 296 296 296 295 295 296 296 297 299 301 300 300 300 299 299 299 297 295 295 296 298 299 299 300 301 301 301 301 300 300 301 300 300 300 300 300 299 299 299 298 298 297 297 297 296 296
307 304 307 308 308 309 308 306 306 302 302 304 302 300 301 301 300 302 302 301 302 301 300 299 298 298 297 296 296 296 296 297 296 296 296 296 296 296 296 296 296 296 295 295 295 295 295 297 299 299 299 298 298 298 298 296 294 295 296 298 299 299 300 301 301 301 301 300 300 300 300 300 300 300 299 299 299 298 298 297 297 296 296 296 296
306 304 306 307 308 309 309 308 306 303 302 303 300 298 299 299 301 303 304 304 304 303 302 301 300 299 298 297 296 296 296 296 296 297 296 296 296 296 296 296 296 296 296 295 295 296 296 296 296 297 298 296 296 297 296 294 294 295 296 298 299 299 300 301 301 301 301 300 300 300 299 299 299 299 299 299 298 298 297 297 296 296 296 295 295
307 306 307 308 308 309 309 309 307 303 301 300 298 297 297 297 298 303 306 306 305 305 304 304 303 302 299 297 296 296 296 296 296 297 297 296 296 296 296 296 296 296 296 296 296 296 296 296 295 296 296 295 295 296 295 294 295 295 296 297 298 299 300 301 301 301 301 300 300 300 299 299 299 299 299 299 298 297 297 297 296 295 295 295 295
307 306 306 307 308 308 307 308 308 304 300 298 297 296 296 296 296 301 306 306 305 306 305 305 305 304 302 301 300 298 296 296 296 297 296 297 297 298 299 299 298 298 296 295 296 296 296 296 295 295 295 295 295 295 295 295 295 295 295 297 299 300 300 300 301 301 300 300 300 300 299 299 299 299 299 298 298 297 297 296 296 295 294 294 294
307 305 303 304 306 306 306 307 308 305 300 297 297 296 296 296 296 301 306 306 305 306 305 304 303 302 301 303 304 301 298 296 296 296 296 296 298 299 301 301 301 301 299 296 295 296 296 296 296 296 296 296 296 296 296 295 295 295 295 297 299 300 300 300 300 301 300 300 300 299 299 299 299 299 299 298 298 297 297 296 296 295 294 294 294
308 306 302 301 302 305 306 306 307 306 302 297 296 296 296 296 296 300 305 305 305 306 305 302 301 299 298 300 303 301 298 296 296 296 296 296 297 300 301 301 302 303 302 298 295 296 296 296 296 296 296 296 295 296 296 296 296 295 295 297 299 299 300 300 300 301 300 300 300 299 298 299 299 298 299 298 298 297 296 296 296 295 294 294 294
307 304 302 301 301 302 304 305 308 308 303 297 296 296 295 296 296 299 304 305 305 306 305 301 300 300 297 298 302 301 298 296 296 296 296 296 297 299 300 301 302 303 301 297 295 296 296 296 296 296 297 297 297 297 297 296 296 296 297 298 299 299 299 300 300 301 300 300 300 298 298 298 299 298 298 298 298 298 297 296 296 295 295 295 294
308 303 301 300 300 301 302 303 306 307 303 297 296 296 295 296 295 297 303 306 305 306 306 301 301 303 298 296 300 301 299 297 296 296 296 296 297 297 297 300 302 302 299 297 296 296 296 296 298 299 300 300 299 299 298 297 297 297 297 298 299 299 299 299 300 300 300 300 300 298 298 298 299 298 299 298 298 298 297 296 296 296 295 295 295
310 304 299 299 300 301 301 300 302 304 302 297 296 296 295 295 294 296 303 307 305 306 306 302 302 304 300 295 297 298 298 297 296 296 297 296 297 297 296 300 302 300 297 296 296 296 296 298 301 301 301 300 300 300 299 298 298 297 296 298 299 299 299 299 299 300 300 300 300 298 298 299 298 298 298 299 298 298 297 296 296 295 295 295 296
Wind_Speed
3 2 2 2 2 3 4 4 4 2 3 2 2 2 3 3 3 3 2 1 1 1 1 1 1 2 2 2 3 4 4 6 5 6 7 10 11 10 8 7 8 10 10 10 11 11 12 12 12 13 12 12 11 12 13 13 15 18 19 19 18 18 18 18 18 17 17 16 17 18 19 19 18 17 16 15 15 18 20 20 20 19 18 17 17
3 2 2 2 2 3 4 5 4 3 3 2 1 1 1 0 1 0 1 2 2 1 0 2 2 1 2 3 4 4 4 4 3 5 6 12 14 12 9 8 8 9 9 10 10 10 11 11 12 13 13 14 14 15 16 17 19 21 22 22 21 21 20 20 19 19 20 19 19 21 22 22 21 20 19 17 16 17 19 20 20 20 20 19 17
4 4 2 3 3 4 4 4 4 4 4 2 2 2 1 1 1 1 1 2 1 2 1 2 2 2 3 3 4 4 3 2 1 4 4 9 14 13 11 9 8 8 8 9 10 10 11 12 12 13 14 15 16 17 19 20 20 22 23 24 22 21 22 22 22 21 20 21 23 25 25 23 22 22 22 21 20 19 19 19 19 20 20 20 19
5 4 4 4 4 4 4 5 4 4 4 3 3 3 1 1 2 2 2 2 1 2 2 2 3 3 4 5 5 5 3 2 1 3 5 4 7 11 14 14 12 10 9 10 11 11 11 12 13 13 14 15 16 18 19 20 21 21 23 24 23 22 22 23 24 24 22 21 22 25 26 25 22 23 25 25 24 22 21 20 19 19 21 21 20
5 4 4 5 4 4 4 5 5 4 5 5 4 3 2 2 1 0 1 1 1 2 3 3 3 3 4 4 4 5 5 4 3 2 3 4 3 3 7 10 12 13 13 11 11 12 12 12 12 13 13 14 15 17 18 20 20 20 21 22 23 23 22 23 23 24 24 22 21 23 25 26 24 23 25 25 25 24 22 21 20 19 21 21 21
6 5 5 5 5 5 4 4 5 4 4 4 4 3 2 1 1 1 0 2 1 2 3 3 3 2 3 3 3 3 4 3 3 3 2 2 1 0 2 5 6 9 13 13 11 10 11 11 11 12 12 13 14 15 16 18 19 19 19 20 21 21 20 21 22 23 24 23 22 22 24 26 25 23 23 24 24 24 22 21 20 19 21 22 21
6 5 6 5 4 4 5 4 5 4 4 4 3 2 1 1 2 1 0 1 1 3 3 3 3 4 3 2 2 2 2 2 3 3 3 3 4 4 5 6 6 6 8 10 11 10 10 11 11 12 12 13 13 14 15 16 17 18 18 19 20 20 20 20 21 22 23 23 22 22 23 24 24 24 23 22 23 24 23 21 21 20 21 23 22
6 5 6 6 4 4 5 6 5 4 4 3 1 1 1 1 2 3 2 1 1 3 2 4 5 6 5 3 3 3 2 2 2 2 3 4 5 6 5 5 6 6 5 7 10 11 11 12 12 12 12 13 13 14 14 15 16 17 18 19 19 21 21 21 21 22 23 24 24 24 23 23 23 23 23 23 23 24 24 23 23 22 22 23 22
6 5 6 6 5 4 4 4 3 2 2 2 1 0 1 1 2 3 3 3 2 3 5 5 5 5 5 4 3 3 2 2 2 2 3 4 4 4 5 5 5 6 7 7 9 11 12 13 13 13 13 14 14 14 15 15 17 17 18 19 20 21 22 22 22 23 23 24 25 25 25 24 24 24 23 23 23 24 25 25 25 23 23 23 23
6 6 6 6 5 4 2 2 2 2 1 2 0 1 1 1 1 2 4 6 4 5 7 6 6 5 5 3 2 2 1 1 2 3 3 3 3 4 5 6 6 7 8 9 10 10 11 13 13 14 14 14 14 15 16 16 17 18 19 20 21 21 22 23 24 24 25 25 25 26 26 25 25 25 23 23 24 24 25 26 25 24 24 24 25
7 6 5 4 4 3 2 2 1 1 1 2 1 3 1 1 1 2 5 8 7 8 8 7 6 4 3 2 2 1 1 1 2 1 2 4 4 5 6 7 7 8 9 10 10 11 12 13 13 14 15 15 16 16 16 17 18 18 19 20 20 21 22 23 23 25 25 26 27 27 27 26 26 26 25 24 24 24 25 26 25 25 25 25 25
7 6 5 3 3 3 3 2 1 2 3 5 6 6 3 1 2 3 6 9 9 9 9 7 4 2 2 2 1 0 1 1 2 3 4 5 6 6 6 7 8 9 9 10 11 12 13 14 14 14 15 16 17 19 19 20 20 20 20 20 21 21 22 23 23 24 25 26 27 27 28 28 27 27 26 24 24 24 25 26 26 25 26 27 26
7 6 5 4 4 4 4 2 2 2 3 4 6 6 4 2 3 4 5 8 7 7 7 2 1 1 0 0 1 1 2 3 3 4 5 6 6 6 6 7 8 9 10 12 13 14 14 15 15 16 17 18 18 18 20 21 22 21 21 22 23 23 24 24 24 24 25 25 26 27 28 29 29 29 28 26 24 24 25 26 27 26 25 27 27
7 6 6 5 4 5 4 2 2 3 3 2 2 3 4 4 4 3 5 8 7 6 4 4 1 1 2 1 2 2 3 4 4 4 6 6 7 7 7 8 8 9 11 12 13 15 15 15 16 16 18 19 18 18 17 20 23 23 24 24 24 24 24 25 25 25 26 26 26 27 28 29 29 30 31 29 27 26 26 26 26 27 25 25 26
7 7 7 6 5 4 3 2 2 3 3 3 4 4 5 5 5 5 5 6 7 8 6 8 6 3 3 6 5 4 2 2 2 5 6 7 8 8 8 8 9 11 11 11 12 14 15 15 16 18 19 20 20 21 21 22 25 26 27 27 26 26 26 26 26 26 27 27 28 28 28 28 29 30 31 31 30 28 27 26 25 25 25 24 24
7 6 5 4 4 3 2 3 3 5 5 6 6 6 6 6 7 7 6 4 6 9 8 11 12 9 6 7 6 5 6 6 2 5 7 9 9 8 9 10 11 12 10 9 11 13 14 16 18 20 21 22 23 23 24 24 27 28 28 28 28 28 29 29 28 28 28 28 28 28 29 29 29 29 30 31 31 29 25 25 24 24 25 25 23
5 4 3 2 2 2 3 4 6 7 8 8 8 7 7 7 7 8 9 8 7 7 7 11 14 12 7 5 4 2 4 8 4 3 4 6 7 7 10 11 11 10 7 7 8 10 12 12 16 21 22 24 24 25 26 26 28 29 28 29 30 30 31 30 30 30 29 28 28 28 28 28 29 29 29 30 29 26 24 24 25 24 25 25 24
5 4 4 3 2 3 4 6 9 9 8 8 8 9 9 9 9 9 9 9 7 6 7 10 13 12 9 8 5 2 6 6 2 2 2 1 5 7 9 10 9 7 5 6 7 9 12 10 12 17 20 23 25 26 27 27 28 30 29 31 32 32 32 32 31 30 29 28 28 28 28 28 28 28 28 28 26 24 24 25 26 25 24 25 26
6 4 4 4 3 4 6 9 10 9 9 9 9 10 10 10 11 11 11 10 9 7 7 8 9 10 9 7 5 5 7 5 3 3 3 3 3 6 7 9 10 8 5 3 5 11 16 15 12 11 15 21 24 26 26 27 28 29 29 32 34 33 33 32 30 29 28 27 27 27 27 27 28 28 27 26 25 25 25 25 25 25 25 26 28
5 4 3 4 5 6 9 10 10 10 10 10 10 10 11 11 11 12 12 13 12 11 10 9 9 8 7 6 6 6 6 7 8 4 1 3 3 4 8 11 11 11 10 5 6 13 16 17 14 9 13 18 19 22 23 25 28 29 29 32 35 34 32 31 29 28 27 26 26 26 27 27 28 27 26 25 26 26 25 26 25 26 27 27 27
5 4 4 6 7 9 11 11 11 11 11 11 11 11 12 13 13 13 12 12 12 13 13 12 11 10 8 7 7 7 6 6 8 3 2 1 2 1 5 10 9 9 13 13 10 11 11 13 13 10 14 16 16 18 21 24 27 27 28 33 36 35 34 33 32 31 30 30 29 29 29 27 27 27 26 25 25 26 25 25 26 25 26 26 24
5 5 6 9 10 11 12 12 11 11 11 11 12 12 13 13 14 14 13 11 12 12 13 12 11 12 11 9 7 6 6 5 5 5 3 2 2 1 2 5 5 6 11 15 8 5 8 9 11 11 14 15 15 18 22 26 25 24 29 35 36 35 35 35 35 34 35 34 35 36 35 31 28 27 27 26 26 27 26 26 26 25 25 25 24
7 7 8 10 12 13 12 12 12 12 12 12 13 14 14 14 14 14 14 13 12 12 12 12 11 11 12 11 10 9 8 7 7 6 4 3 2 2 2 3 3 3 7 12 7 4 8 9 10 11 13 15 16 20 26 26 22 24 32 36 35 35 35 35 35 35 35 35 37 40 41 40 35 31 28 27 27 27 27 27 26 26 26 26 26
8 10 11 12 13 13 13 13 13 13 13 14 15 16 15 15 14 14 14 14 13 13 13 13 12 12 12 11 11 11 10 9 9 9 6 5 3 3 3 4 4 1 3 6 6 5 9 11 11 11 13 15 19 24 28 26 23 27 35 37 35 34 34 35 34 34 33 35 38 40 41 42 42 39 34 31 30 29 28 26 26 26 27 27 27
8 11 13 14 14 14 14 14 14 14 15 15 16 16 15 15 14 14 14 13 13 13 13 13 13 12 12 11 11 11 11 10 10 10 9 6 5 4 5 4 3 4 3 3 5 6 10 12 11 12 14 18 23 27 28 28 26 30 36 38 36 33 34 35 33 30 31 33 35 36 38 40 43 44 42 39 36 31 27 26 26 26 26 28 27
10 13 14 15 15 15 15 14 14 15 16 16 16 16 15 14 14 14 13 13 13 13 12 12 12 12 12 11 11 11 10 10 10 10 10 9 9 8 7 4 2 5 5 4 6 8 12 13 11 12 16 21 27 28 29 30 28 31 37 38 36 33 33 36 34 28 27 30 32 35 38 42 45 45 45 43 37 30 26 26 26 26 26 28 27
11 15 16 16 16 16 15 15 15 16 16 17 17 16 16 15 14 14 13 13 13 13 13 12 12 11 11 11 11 11 10 10 9 10 10 10 11 12 10 6 4 6 6 5 7 9 13 14 11 13 18 24 28 28 30 30 28 32 38 39 38 34 32 37 35 27 26 30 34 37 40 42 45 46 45 42 34 27 27 26 25 25 25 26 26
11 16 16 16 16 16 16 16 17 17 17 17 17 16 16 15 14 14 14 14 13 13 13 12 12 11 11 11 10 10 10 10 10 9 10 11 13 13 13 10 7 6 6 6 7 8 13 14 13 14 19 25 28 29 31 29 28 34 38 39 38 34 33 36 35 30 30 34 36 37 39 42 45 46 45 42 33 27 26 25 24 25 25 25 26
11 16 17 17 17 17 17 18 18 19 19 18 17 16 16 15 15 15 15 14 14 14 13 12 12 11 11 11 10 10 10 10 10 10 11 12 14 14 14 14 11 8 7 7 7 10 14 15 14 17 21 24 27 29 31 28 29 34 38 39 35 33 34 36 35 33 32 34 36 38 40 43 45 45 44 43 39 31 26 25 25 25 26 26 26
13 17 18 18 19 18 19 19 19 20 20 19 18 17 16 16 16 15 15 14 14 13 13 12 11 11 11 10 10 10 10 10 10 10 11 13 14 14 14 15 14 11 9 7 7 10 15 16 16 19 22 24 25 26 27 27 30 34 37 38 34 34 36 34 33 33 31 32 35 38 40 43 43 43 43 43 42 35 27 25 26 26 26 26 26
15 18 19 19 19 19 20 20 21 21 20 20 19 18 17 16 16 15 15 14 13 13 12 12 11 10 10 10 10 11 11 11 11 11 11 13 13 13 14 14 14 14 12 8 6 9 13 16 18 19 20 22 23 22 24 26 30 34 36 37 36 36 36 32 32 32 30 31 34 37 41 42 42 44 44 43 40 36 31 29 30 30 28 27 27
17 19 20 20 20 20 20 21 22 22 21 20 19 18 17 17 16 16 15 14 13 13 13 12 11 11 10 10 10 10 11 11 10 11 12 13 13 13 13 12 12 13 13 9 7 9 12 15 18 17 18 21 21 21 23 26 30 33 35 36 36 37 35 31 31 31 31 31 34 38 40 41 43 44 43 40 37 36 35 33 32 31 28 26 26
18 20 21 20 20 21 21 22 22 22 21 20 19 18 18 17 17 16 15 15 14 13 13 12 12 11 10 10 10 10 11 11 10 9 10 11 10 10 11 10 9 11 13 11 8 11 13 15 17 16 17 20 20 21 22 26 31 35 36 35 34 35 34 31 30 30 31 34 37 39 41 42 42 41 39 37 36 37 36 33 31 29 27 25 24
19 21 21 20 20 21 22 22 23 22 21 20 20 19 18 17 17 16 15 15 14 13 13 12 12 11 11 10 10 10 10 11 10 8 9 9 7 7 9 9 9 10 12 12 9 11 14 16 17 17 18 19 20 21 22 25 30 35 37 35 33 33 34 32 29 27 30 35 37 39 42 42 39 38 37 36 36 36 34 32 30 30 30 28 24
19 21 20 20 21 22 23 23 23 22 21 21 20 19 18 17 17 17 16 15 14 13 13 12 12 11 11 10 10 10 10 11 10 9 9 9 7 7 8 8 9 10 11 12 10 11 14 16 16 16 18 19 20 21 22 25 30 34 35 36 33 32 33 32 28 27 30 34 36 38 41 40 37 37 37 35 34 34 32 31 30 30 31 29 24
20 21 20 21 22 23 23 23 22 21 21 21 21 19 17 17 16 16 16 15 14 14 13 13 12 11 11 10 10 10 10 10 9 8 8 8 7 7 7 6 6 8 10 10 9 11 13 15 16 16 17 18 19 20 23 27 31 32 34 37 35 32 31 30 28 27 29 32 35 40 41 39 37 37 36 35 34 32 32 32 31 30 29 26 23
21 22 21 21 22 23 23 22 21 21 21 21 20 19 18 17 16 15 15 15 15 14 14 13 12 12 11 10 10 9 9 9 9 7 6 7 7 6 7 6 5 7 9 8 9 10 12 14 15 15 16 17 19 20 24 29 32 33 35 38 38 33 29 28 28 28 28 30 36 43 43 39 38 38 37 35 33 32 33 32 30 27 26 24 22
21 22 22 21 22 22 22 21 20 21 21 20 19 19 19 18 16 15 15 15 15 14 14 13 13 12 11 10 9 9 9 8 8 7 6 7 7 7 7 7 7 8 9 8 9 10 11 13 13 14 16 17 18 21 25 29 32 34 36 39 40 34 30 29 28 28 27 28 35 43 45 42 40 38 36 35 33 32 31 29 27 26 24 23 22
22 22 22 21 22 21 19 19 20 20 21 19 19 19 18 18 16 16 16 16 16 15 15 14 13 12 11 10 9 9 8 8 7 6 5 6 6 7 7 8 9 10 8 7 9 10 11 12 12 14 15 16 18 22 26 27 30 34 35 38 40 37 32 31 29 28 28 29 35 41 44 41 37 35 35 35 33 30 29 27 26 24 24 25 26
21 21 21 21 21 20 18 20 20 20 20 19 19 19 18 18 17 16 16 17 16 16 15 15 14 12 11 10 9 8 7 6 6 5 4 5 6 6 7 8 10 11 9 7 8 9 10 11 12 13 15 16 18 23 26 27 30 34 35 35 36 36 33 32 29 28 28 31 35 40 43 41 36 36 35 33 32 31 30 28 25 24 27 29 31
21 20 20 21 21 19 19 21 21 21 21 19 19 19 18 18 17 16 16 16 16 16 15 14 13 12 11 9 8 8 6 5 5 4 4 5 5 6 7 8 9 11 11 9 9 10 10 11 11 13 15 16 19 22 24 27 30 33 35 33 32 33 32 31 30 28 28 32 36 40 44 43 39 38 35 32 33 33 31 28 26 28 31 33 35
21 21 20 20 20 19 19 21 21 22 22 19 20 21 19 18 17 16 16 16 15 15 15 14 13 11 10 9 7 6 6 5 4 4 4 4 5 6 7 8 9 10 11 11 11 12 12 10 11 14 15 17 20 21 21 26 30 32 34 32 31 33 32 31 31 29 28 33 36 39 44 45 41 38 36 34 34 33 30 29 29 30 33 34 36
22 23 22 21 20 20 20 21 22 22 22 21 22 24 21 19 17 16 16 16 14 14 14 14 13 11 10 8 7 6 5 4 4 4 4 4 6 7 7 8 10 11 12 12 13 15 15 13 12 14 15 17 20 19 20 26 30 33 33 30 30 32 32 32 33 32 31 34 35 38 43 44 40 37 36 35 35 33 31 32 32 31 31 32 33
24 24 23 22 21 20 20 21 22 22 22 23 24 24 22 21 19 16 15 15 14 14 14 13 12 11 10 8 7 6 4 3 3 3 3 4 5 6 6 8 9 10 11 13 14 14 16 17 15 14 15 18 19 18 21 26 30 32 32 29 29 30 30 31 32 33 34 34 35 41 46 45 39 36 35 35 35 35 33 33 33 32 33 33 35
24 23 22 21 21 21 20 20 21 23 24 25 24 23 22 21 21 18 14 13 14 13 12 12 11 10 10 8 7 5 3 2 2 1 1 3 4 5 7 8 9 10 11 12 13 13 16 17 17 15 16 18 20 20 24 28 29 31 31 30 29 29 29 31 32 33 34 33 34 41 46 44 40 37 35 34 34 35 35 34 35 35 36 36 33
24 24 24 22 21 22 22 21 21 22 25 25 23 23 22 21 22 19 14 12 13 12 12 13 12 11 11 8 6 5 4 4 3 3 2 1 3 5 6 7 9 11 12 13 14 15 17 17 16 16 18 19 22 23 26 28 29 31 32 31 29 28 29 31 30 30 30 30 33 39 42 41 39 37 36 34 33 36 37 35 35 37 38 37 34
24 24 26 25 24 23 23 21 20 21 24 24 22 23 22 21 21 20 15 13 13 12 13 15 15 15 14 11 8 7 7 5 4 3 2 1 2 2 3 4 5 7 9 11 12 12 15 15 14 15 18 20 23 24 26 28 28 30 31 29 26 26 28 28 27 27 28 28 32 39 40 38 37 37 38 34 33 39 41 34 34 40 42 39 35
24 23 25 27 26 25 23 22 20 20 24 24 22 23 23 21 23 22 16 13 13 12 13 15 15 14 14 13 11 9 9 7 4 3 2 1 2 1 1 2 2 4 7 8 8 9 12 12 12 14 17 20 23 25 26 28 28 31 31 26 23 25 27 27 26 28 29 28 31 39 40 35 35 38 38 33 35 45 47 42 43 47 47 42 38
26 24 24 25 26 26 24 22 18 18 23 24 22 23 23 22 24 23 15 11 13 12 12 15 14 13 14 13 10 9 9 8 6 5 4 2 2 2 1 2 2 3 7 9 9 10 10 11 13 17 20 22 25 25 26 27 28 29 28 25 24 26 26 26 26 28 29 26 28 37 39 33 34 38 35 32 39 49 53 53 55 55 50 46 41
28 28 26 24 24 24 23 22 19 18 23 25 22 23 24 23 25 24 15 11 13 12 12 15 13 12 15 15 12 11 10 9 7 6 4 3 3 2 2 1 2 4 7 8 8 9 10 13 16 19 20 21 22 21 22 25 27 26 25 23 24 25 25 26 26 28 29 24 25 36 38 33 35 38 35 36 43 50 54 56 57 57 54 49 43
29 31 29 26 24 21 21 22 23 21 21 23 23 24 25 24 25 23 15 10 13 13 12 14 13 11 14 15 14 13 11 9 8 7 5 5 3 3 3 1 3 6 7 8 9 10 13 16 16 17 17 17 18 18 19 22 24 24 24 24 24 23 24 26 25 26 28 25 27 36 37 33 35 37 36 39 45 50 55 57 57 59 59 54 46
Wind_Direction
200 188 181 163 165 146 138 132 137 145 134 167 259 167 178 225 188 203 250 325 68 94 61 53 31 35 33 353 37 33 46 57 27 19 342 332 350 349 355 4 357 359 356 355 352 346 342 338 336 336 335 331 330 329 325 323 319 316 318 321 322 321 317 312 308 305 308 315 320 318 315 314 314 314 311 306 304 301 298 299 304 304 304 300 281
191 190 190 154 151 155 145 128 132 140 132 148 217 162 158 130 124 278 5 37 42 72 117 85 61 34 48 22 42 43 38 68 67 60 10 335 343 346 355 9 1 358 352 350 348 341 337 333 332 328 325 321 318 316 316 316 317 318 318 321 324 324 321 316 310 308 308 309 311 311 312 315 315 312 310 305 299 297 296 294 296 297 297 298 290
187 187 176 157 160 156 140 130 137 139 132 144 160 134 129 108 106 232 127 87 73 75 54 83 70 37 54 44 51 52 32 54 130 122 85 351 345 345 353 358 353 358 354 347 344 339 333 329 326 322 319 317 316 315 315 316 317 317 317 318 321 321 320 316 313 311 310 310 310 310 310 311 313 313 312 309 305 298 294 294 292 290 290 292 293
185 182 172 164 158 148 139 135 136 138 137 144 148 129 141 181 161 197 175 130 121 95 70 83 86 68 60 56 63 63 45 49 74 136 124 73 8 354 351 345 346 356 355 345 337 334 330 325 322 318 315 314 314 315 314 314 314 314 314 314 315 316 315 314 313 312 311 311 310 309 308 308 310 312 311 311 311 308 300 295 289 287 286 286 290
174 175 165 159 152 145 141 140 143 152 158 150 140 133 154 190 146 221 160 101 76 88 87 76 84 97 93 89 91 83 72 66 66 83 109 114 97 38 354 342 344 342 340 342 337 332 330 328 323 320 319 317 317 316 314 314 314 316 315 313 314 314 314 313 312 311 312 312 309 306 305 306 309 310 310 309 309 310 309 301 291 285 283 282 283
161 168 156 150 156 158 146 152 156 150 164 165 148 144 164 157 122 326 355 88 67 85 98 90 90 124 151 158 166 137 112 91 63 54 41 36 53 57 313 328 332 327 331 340 345 341 337 337 334 332 331 328 326 324 321 320 321 323 322 320 319 319 320 318 315 314 314 314 311 307 304 305 307 308 307 307 307 308 310 308 297 286 280 277 276
154 166 152 141 156 167 152 163 167 157 175 176 151 138 166 138 144 182 117 105 101 90 99 136 161 189 202 184 169 152 138 105 74 57 28 3 345 331 322 323 324 327 328 332 343 351 349 349 348 345 342 339 335 332 330 328 328 330 329 328 325 326 327 324 321 319 318 318 316 312 310 308 307 307 305 303 304 304 306 308 301 291 282 276 273
154 164 151 140 151 179 175 182 176 176 190 158 88 44 335 294 179 186 164 139 127 115 146 178 190 212 215 196 163 124 96 73 76 63 12 344 334 337 341 344 343 346 346 337 345 355 359 359 357 355 352 348 345 342 340 337 336 336 335 333 331 330 330 329 326 323 322 321 320 318 317 315 311 308 306 302 300 299 301 302 301 298 290 282 277
157 166 160 148 153 181 185 184 169 197 211 131 101 227 291 281 207 212 186 150 146 165 183 193 202 215 212 200 178 141 116 85 43 359 342 337 346 360 3 9 6 0 5 4 3 5 4 3 1 1 360 356 353 351 349 346 345 343 340 338 336 334 332 332 331 328 327 324 322 321 320 319 316 312 309 305 300 298 296 296 298 299 296 290 285
162 170 172 162 164 180 175 169 164 219 231 101 326 261 231 241 239 236 186 147 147 175 175 189 209 215 211 198 169 145 119 79 10 348 354 13 24 29 24 20 19 16 15 17 18 16 12 9 7 5 4 2 359 358 357 354 351 348 346 343 339 337 335 335 334 333 331 329 327 325 322 321 319 316 313 309 303 299 296 293 293 295 295 292 289
168 169 173 171 173 189 200 189 171 242 236 102 342 289 274 211 209 204 165 146 152 183 192 205 218 213 197 176 154 137 106 11 354 30 59 61 49 37 33 26 22 22 23 23 22 18 16 16 14 10 5 4 4 3 2 359 358 356 351 347 343 341 339 337 335 334 332 331 329 327 325 324 322 319 317 313 308 303 299 294 291 290 290 290 290
174 169 170 176 178 209 222 189 143 269 237 171 185 227 241 168 170 164 156 155 160 190 214 225 218 203 195 175 156 101 10 356 45 86 80 62 54 48 38 29 26 26 28 28 25 21 18 16 15 12 9 7 7 5 4 3 3 360 354 351 350 347 345 343 339 337 334 331 329 327 326 325 324 322 319 317 313 308 303 298 294 290 287 286 287
173 167 169 182 199 225 229 186 171 240 235 189 187 209 208 161 170 162 151 150 156 196 217 204 120 117 63 257 173 84 17 36 77 80 72 63 53 50 43 38 33 30 30 27 25 23 19 17 15 12 13 13 12 7 3 3 2 359 357 357 355 353 349 346 344 341 338 334 331 328 326 324 323 322 321 320 317 313 308 303 298 295 290 285 285
170 169 173 185 207 225 227 197 185 212 218 211 187 170 173 169 166 163 162 153 155 196 193 119 96 345 84 149 175 127 44 48 74 64 59 59 52 46 40 38 38 40 37 28 23 21 20 18 15 14 15 15 15 11 5 3 1 360 1 1 358 355 351 348 346 343 339 336 333 330 328 325 323 321 320 320 319 316 311 308 303 300 296 290 286
183 190 190 194 203 214 219 200 188 207 198 188 176 166 175 180 175 177 175 167 174 194 187 165 183 220 200 200 192 159 121 74 63 57 57 51 48 45 39 35 34 40 37 26 20 17 18 18 17 19 18 16 14 11 8 4 2 2 2 1 358 355 352 349 346 342 339 336 333 331 328 325 323 320 318 318 319 318 315 312 309 305 301 296 290
184 193 203 205 203 208 206 192 191 190 178 174 175 177 183 189 195 185 160 159 198 206 205 187 180 186 209 219 210 194 173 166 132 42 42 38 40 35 33 36 37 40 33 18 12 8 11 11 13 17 16 14 13 10 9 4 1 2 1 360 357 353 351 348 344 340 337 334 331 328 326 323 321 318 316 316 316 318 318 315 313 310 306 302 296
181 181 205 211 201 206 198 188 185 179 174 174 177 181 188 193 201 196 176 177 200 209 202 190 185 189 201 212 228 235 156 159 154 73 53 38 39 31 29 33 36 40 27 12 6 3 9 1 1 11 11 10 11 9 7 3 359 358 358 358 355 352 349 344 341 338 335 331 328 324 322 318 316 315 313 312 314 317 317 314 312 313 311 306 300
208 212 232 254 236 203 198 187 176 173 174 177 180 184 190 194 196 196 188 181 179 180 179 183 191 199 205 214 226 155 127 153 179 134 161 318 4 19 34 37 35 33 5 360 356 3 22 16 359 3 3 4 7 7 5 1 357 354 354 356 354 350 346 342 338 336 332 328 325 321 319 316 314 312 310 310 313 315 315 312 312 313 312 309 305
227 239 257 256 226 190 189 182 172 171 177 180 182 185 188 191 190 184 176 168 155 148 150 160 180 191 195 203 209 171 158 176 187 167 196 223 310 340 4 19 34 43 26 343 327 358 22 24 11 355 349 358 2 2 1 356 353 353 353 352 352 348 343 341 338 334 331 327 324 321 319 317 314 312 313 313 311 311 312 311 311 310 308 308 307
231 255 254 219 195 187 184 177 173 175 181 183 182 183 182 180 179 174 169 165 158 152 147 144 151 157 161 160 155 158 169 184 186 196 261 190 201 296 321 335 0 26 27 20 353 5 15 13 11 355 343 354 356 353 352 349 350 353 351 348 349 347 344 342 338 333 330 325 322 319 317 317 315 313 315 316 314 311 311 310 308 307 306 306 305
235 255 223 190 185 187 183 177 178 180 181 180 177 176 173 168 166 163 163 166 163 159 154 150 147 140 137 135 132 128 132 163 177 172 15 110 163 248 291 307 323 345 2 11 9 3 360 354 358 352 344 350 348 343 343 346 350 350 346 347 348 347 345 343 340 335 331 329 328 325 319 315 314 315 315 315 314 312 310 309 307 307 307 306 303
229 231 196 183 185 185 183 181 182 182 180 174 169 168 164 161 158 153 156 160 159 156 153 153 153 150 144 133 126 119 111 119 123 102 61 63 62 24 272 294 293 280 332 1 13 346 344 347 347 345 346 349 343 339 345 352 352 344 344 348 349 348 347 345 342 337 335 337 340 340 335 327 319 316 315 313 313 312 310 308 306 307 306 305 301
208 197 183 182 184 184 183 183 183 180 176 170 164 162 158 155 152 150 151 151 149 148 146 146 148 150 148 142 142 136 123 116 107 96 65 48 35 6 359 329 313 239 316 357 24 14 357 355 348 346 348 347 344 346 355 357 348 343 348 350 349 349 349 345 341 339 341 343 345 345 344 340 333 325 319 316 314 312 311 308 305 304 301 300 300
192 180 184 185 183 184 184 184 184 178 172 168 163 158 155 153 151 150 149 146 145 144 143 143 142 140 137 133 134 129 121 118 113 109 91 56 26 10 14 352 354 1 328 1 21 14 3 358 352 352 348 346 349 356 1 358 348 349 352 352 351 350 346 343 342 345 346 345 344 344 343 341 338 335 330 324 318 313 311 309 305 304 301 298 299
183 179 186 184 183 186 186 185 182 177 171 165 161 158 155 154 152 149 147 144 142 143 142 141 137 134 131 126 124 120 114 113 107 104 99 76 61 48 18 3 9 6 7 33 22 6 3 360 355 354 349 350 359 4 3 358 355 353 353 354 354 349 344 342 344 345 342 340 342 342 340 336 336 336 334 328 322 317 313 310 307 305 304 301 300
184 183 185 183 187 189 187 185 180 175 170 164 160 158 156 155 153 149 146 144 142 141 138 136 134 129 127 124 120 117 109 106 102 97 95 85 78 70 34 12 24 15 17 29 21 10 1 359 360 356 352 358 7 8 5 2 358 351 353 358 355 348 343 341 339 337 336 337 338 337 335 333 333 334 333 330 325 319 315 312 308 305 304 302 301
184 186 188 186 190 190 186 184 179 173 169 164 162 160 160 158 154 152 150 146 142 138 135 133 132 127 125 123 117 114 107 102 101 96 93 84 76 73 55 38 32 23 22 19 19 13 0 359 2 358 357 6 12 11 7 5 354 350 357 1 357 350 343 340 339 335 334 335 334 333 333 331 331 332 333 332 327 319 317 314 310 307 305 303 303
184 188 190 188 191 190 185 183 177 172 167 165 164 163 161 158 156 155 151 146 140 137 136 133 131 127 125 121 114 110 106 102 101 94 91 83 75 72 66 60 50 23 12 18 20 5 359 1 359 359 4 9 13 13 10 3 350 352 0 0 355 348 340 342 347 347 343 340 336 333 331 329 330 331 333 333 328 320 317 315 312 310 308 304 303
188 191 191 190 191 189 185 181 176 172 168 166 166 164 162 160 159 158 151 146 141 138 137 134 131 129 123 119 115 110 106 103 98 92 88 82 75 71 67 64 60 43 16 10 9 358 2 5 357 0 7 7 9 11 9 360 350 354 360 359 349 339 339 345 347 349 346 339 332 330 329 330 331 331 331 331 330 326 319 316 316 312 310 308 305
193 194 194 193 192 188 184 180 176 174 170 168 166 165 165 164 161 156 150 145 143 141 139 135 131 128 125 120 114 111 106 101 94 86 82 79 75 71 68 64 58 56 42 13 357 353 0 5 4 4 4 2 3 4 1 355 352 355 360 359 347 339 343 345 342 344 341 333 329 329 329 330 331 330 329 330 330 328 321 315 314 312 310 310 307
197 197 196 194 192 187 182 179 176 175 171 167 166 166 168 166 160 154 150 146 145 143 140 137 133 128 125 120 116 113 105 98 92 85 80 76 74 69 66 61 52 53 52 27 351 344 349 360 8 4 356 356 356 352 349 350 352 354 358 359 352 346 345 341 338 341 339 334 330 326 327 329 329 329 329 330 332 331 327 322 318 315 313 312 311
199 198 196 195 191 185 181 180 178 176 172 167 167 169 169 165 158 153 150 147 147 145 141 139 135 130 125 121 119 114 107 100 91 85 80 73 70 66 63 57 45 43 48 34 350 336 345 357 3 357 348 352 352 345 342 347 351 355 357 358 354 350 343 335 335 338 337 335 329 326 330 331 329 329 330 332 336 335 332 329 324 319 317 318 321
201 197 195 194 190 184 181 181 180 177 172 169 169 171 169 163 157 153 150 149 148 146 144 142 138 132 127 123 119 114 111 106 94 84 80 71 62 59 60 55 42 35 39 35 1 338 349 1 359 350 344 347 346 343 342 343 349 356 359 356 351 348 343 334 334 337 335 332 331 334 335 331 328 329 331 335 337 336 334 334 332 327 324 324 325
201 195 195 192 188 185 183 181 180 178 174 171 171 173 170 163 158 154 151 152 152 149 146 145 141 137 132 128 123 116 112 108 102 98 92 85 69 60 61 53 42 35 32 32 10 336 339 352 353 347 343 342 342 344 342 340 347 355 358 353 346 345 344 339 336 335 333 335 339 338 333 331 331 331 332 334 334 334 335 338 338 335 332 328 325
198 193 193 191 187 185 182 181 180 177 176 175 175 174 169 164 161 157 154 156 155 151 149 147 144 140 136 134 129 122 116 108 102 97 95 92 79 64 60 45 31 29 29 27 3 331 329 339 343 340 339 340 340 342 342 342 349 354 353 351 346 343 344 343 337 333 335 340 342 337 332 334 334 332 332 333 333 334 337 337 334 332 332 330 326
196 191 192 191 188 185 182 181 180 178 178 179 176 172 168 167 164 159 157 158 156 153 152 151 148 145 143 139 133 124 119 113 104 98 94 92 81 63 60 48 15 10 24 18 344 325 325 327 332 334 336 338 339 341 343 346 351 352 352 352 349 343 341 341 336 334 338 339 337 336 337 338 336 335 336 335 334 338 339 334 330 329 332 333 329
193 191 192 190 187 186 181 179 181 181 181 179 175 171 171 171 165 160 160 160 160 160 159 157 153 150 148 144 138 130 123 119 113 107 97 91 85 68 61 56 23 14 26 7 332 327 325 320 327 332 335 338 339 342 347 350 352 351 353 357 355 347 339 337 336 337 339 337 336 340 343 341 340 340 337 336 337 340 337 333 333 336 336 333 326
191 192 192 188 185 184 180 180 184 185 182 178 175 175 176 173 166 164 166 166 166 164 162 162 159 157 155 149 145 139 132 126 120 114 100 87 84 69 56 53 42 35 28 357 333 333 328 324 329 333 336 340 340 343 349 353 354 352 351 356 359 353 341 337 338 338 338 335 335 342 346 343 341 340 338 339 340 336 333 333 338 340 334 325 320
192 194 190 185 184 181 178 181 185 186 183 178 177 179 178 175 171 172 172 170 168 166 165 167 166 164 161 155 152 147 139 134 125 114 102 86 78 65 48 42 43 41 27 354 341 339 333 332 335 336 340 342 341 344 350 352 354 356 354 353 355 353 343 339 339 337 337 334 333 340 346 343 339 340 341 341 338 334 334 338 342 336 324 316 316
193 192 187 186 184 178 179 183 186 188 184 179 181 182 179 177 177 177 176 172 171 171 169 171 169 165 165 161 157 151 141 135 125 109 94 78 68 59 43 34 37 39 32 8 351 346 342 340 339 339 341 343 342 346 350 351 350 356 358 353 348 346 342 340 340 337 336 335 332 337 345 345 342 343 344 342 340 339 339 340 337 327 317 316 318
192 188 185 188 183 178 183 186 188 191 185 180 184 184 180 182 181 178 177 175 175 174 171 171 169 169 172 167 158 154 144 134 125 104 81 64 56 48 37 30 30 34 36 28 11 2 356 348 342 343 344 344 344 345 347 349 349 353 357 353 344 342 340 338 339 338 337 337 335 335 342 346 344 343 345 344 343 342 340 337 334 327 323 323 323
192 186 185 188 183 181 187 187 190 193 187 185 190 186 181 183 182 178 178 177 175 174 171 170 170 173 177 170 160 159 152 137 124 96 71 54 47 40 33 28 28 30 32 31 27 21 13 359 345 346 346 342 344 345 342 345 352 356 355 348 341 341 341 337 336 339 340 340 337 335 339 343 344 342 344 346 344 343 341 336 331 327 326 326 323
195 191 188 188 184 184 188 189 193 194 189 192 197 191 185 182 179 179 180 177 174 176 175 173 173 175 178 174 168 170 161 143 121 88 63 43 35 32 27 26 26 27 26 25 25 23 20 15 0 348 344 342 345 344 339 345 356 358 353 345 340 340 340 336 335 336 340 342 337 334 338 343 344 342 344 347 346 344 342 336 331 330 329 325 320
196 193 190 189 187 186 187 191 196 196 195 201 201 196 192 187 180 178 181 179 178 180 179 176 175 178 180 179 179 179 171 146 113 79 57 43 34 26 25 28 26 25 24 22 21 18 17 19 13 354 345 347 347 343 344 352 357 355 350 345 342 340 336 334 332 330 335 340 334 332 337 343 344 342 343 346 346 345 342 336 334 333 328 321 314
194 192 189 188 189 189 186 191 198 201 203 205 202 198 197 195 185 175 177 186 184 182 182 178 177 183 185 189 190 184 178 162 137 117 44 33 31 20 19 23 22 23 24 19 16 14 14 17 15 2 353 353 352 350 355 359 357 350 347 345 342 338 332 330 330 328 334 338 332 332 337 342 343 342 342 345 345 344 343 338 334 331 327 325 321
196 195 193 190 191 193 192 193 199 204 208 207 203 198 198 200 190 173 171 191 190 185 188 184 182 186 186 190 204 205 201 193 178 178 190 58 40 24 8 3 3 8 11 10 9 10 11 13 11 4 3 2 0 360 2 2 357 351 349 347 341 333 328 329 330 330 337 339 333 334 338 341 342 341 341 344 345 345 346 343 338 335 333 334 331
199 198 198 196 196 197 195 195 199 206 211 208 203 201 199 199 191 175 170 189 192 190 197 192 190 192 187 182 193 212 219 214 202 197 193 159 88 48 352 336 339 338 343 354 1 2 5 9 7 3 6 7 6 6 4 1 356 353 353 349 338 328 327 331 332 334 341 341 336 337 340 341 342 341 340 342 346 350 352 349 343 342 342 341 337
202 202 203 202 201 199 197 197 198 207 214 210 203 205 203 197 191 181 175 188 193 194 202 199 195 198 195 185 186 208 223 220 206 204 211 191 122 104 313 320 330 307 307 324 343 353 359 2 360 359 4 7 8 9 6 0 355 353 353 348 336 331 333 335 335 337 341 341 338 340 342 341 342 341 339 340 347 353 356 356 353 353 353 350 345
205 205 206 204 204 204 202 198 195 205 217 213 205 207 206 198 193 187 178 190 198 196 205 205 197 199 201 189 183 211 230 226 209 200 208 201 148 149 238 299 331 305 294 309 334 351 355 354 355 360 3 3 3 3 1 360 358 353 348 341 336 336 337 337 338 337 340 342 340 340 342 341 342 342 338 337 347 354 357 358 358 359 358 355 352
215 212 210 208 206 208 207 203 199 206 218 216 207 208 209 202 198 190 179 193 203 198 207 207 196 204 212 198 189 207 222 221 211 201 202 202 178 176 202 269 323 294 289 312 337 344 348 356 358 357 355 351 350 349 350 354 357 352 346 341 338 338 337 336 336 335 336 342 342 340 341 340 342 343 338 335 344 354 359 357 356 358 359 358 356
219 215 212 209 208 209 210 210 209 210 219 219 212 210 211 206 200 190 179 198 209 200 206 210 197 206 222 212 205 216 222 216 209 203 204 208 198 195 207 251 295 285 297 327 338 339 354 3 355 344 342 341 341 340 340 346 352 354 357 353 342 336 335 334 335 335 334 337 339 340 341 340 341 342 340 336 339 348 357 358 356 357 359 359 358